Weather History for Tallahassee, FL

Change the Weather History Date:

Saturday, January 4, 2014

  Actual Average Record
Temperature  
Mean Temperature 48 °F 51 °F  
Max Temperature 62 °F 63 °F 81 °F (1973)
Min Temperature 33 °F 39 °F 18 °F (1928)
Degree Days  
Heating Degree Days 17    
Month to date heating degree days 68  
Since 1 July heating degree days 467  
Cooling Degree Days 0    
Month to date cooling degree days 0  
Year to date cooling degree days 0  
Moisture  
Dew Point 33 °F    
Average Humidity 57    
Maximum Humidity 66    
Minimum Humidity 47    
Precipitation  
Precipitation 0.00 in 0.12 in 3.50 in (1906)
Month to date precipitation 0.65 0.48  
Year to date precipitation 0.65 0.48  
Sea Level Pressure  
Sea Level Pressure 30.25 in    
Wind  
Wind Speed 5 mph (NE)    
Max Wind Speed 10 mph    
Max Gust Speed 14 mph    
Visibility 10 miles    
Events      
T = Trace of Precipitation, MM = Missing Value Source: NWS Daily Summary

Daily Weather History Graph

Daily Weather History Graph

Search for Another Location

Airport:

Trip Planner

Search our weather history database for the weather conditions in past years. The results will help you decide how hot, cold, wet, or windy it might be!

Date:

Astronomy

Jan. 04, 2014 Rise Set
Actual Time 7:34 AM EST 5:50 PM EST
Civil Twilight 7:08 AM EST 6:16 PM EST
Nautical Twilight 6:38 AM EST 6:46 PM EST
Astronomical Twilight 6:09 AM EST 7:15 PM EST
Moon 9:56 AM EST (1/4) 9:50 PM EST (1/4)
Length of Visible Light 11h 08m
Length of Day
10h 15m
Waxing Crescent, 15% of the Moon is Illuminated
Jan 4
Waxing Crescent
Jan 7
First Quarter
Jan 15
Full
Jan 24
Last Quarter
Jan 30
New

Hourly Weather History & Observations

Time (EST) Temp. Windchill Dew Point Humidity Pressure Visibility Wind Dir Wind Speed Gust Speed Precip Events Conditions
12:53 AM 35.1 °F 30.1 °F 19.0 °F 52% 30.34 in 10.0 mi ENE 5.8 mph - N/A   Clear
1:53 AM 34.0 °F 31.0 °F 19.9 °F 56% 30.32 in 10.0 mi NE 3.5 mph - N/A   Clear
2:53 AM 34.0 °F 29.8 °F 19.9 °F 56% 30.30 in 10.0 mi NE 4.6 mph - N/A   Clear
3:53 AM 35.1 °F 32.2 °F 18.0 °F 50% 30.30 in 10.0 mi NE 3.5 mph - N/A   Clear
4:53 AM 35.1 °F 30.1 °F 18.0 °F 50% 30.30 in 10.0 mi NNE 5.8 mph - N/A   Clear
5:53 AM 35.1 °F 32.2 °F 18.0 °F 50% 30.31 in 10.0 mi NNE 3.5 mph - N/A   Clear
6:53 AM 35.1 °F 31.0 °F 19.9 °F 54% 30.31 in 10.0 mi NNE 4.6 mph - N/A   Partly Cloudy
7:53 AM 35.1 °F 30.1 °F 21.0 °F 57% 30.30 in 10.0 mi NE 5.8 mph - N/A   Scattered Clouds
8:53 AM 39.0 °F 34.8 °F 24.1 °F 55% 30.32 in 10.0 mi NE 5.8 mph - N/A   Scattered Clouds
9:53 AM 43.0 °F 37.7 °F 28.9 °F 58% 30.33 in 10.0 mi ENE 9.2 mph - N/A   Partly Cloudy
10:53 AM 48.9 °F - 34.0 °F 56% 30.32 in 10.0 mi Variable 5.8 mph - N/A   Partly Cloudy
11:53 AM 52.0 °F - 36.0 °F 54% 30.28 in 10.0 mi NE 6.9 mph - N/A   Scattered Clouds
12:53 PM 55.9 °F - 37.9 °F 51% 30.23 in 10.0 mi East 3.5 mph - N/A   Scattered Clouds
1:53 PM 59.0 °F - 41.0 °F 51% 30.21 in 10.0 mi East 3.5 mph - N/A   Mostly Cloudy
2:53 PM 60.1 °F - 42.1 °F 51% 30.19 in 10.0 mi Calm Calm - N/A   Overcast
3:53 PM 61.0 °F - 43.0 °F 52% 30.16 in 10.0 mi NNE 6.9 mph - N/A   Overcast
4:53 PM 60.1 °F - 44.1 °F 55% 30.17 in 10.0 mi NE 3.5 mph - N/A   Overcast
5:53 PM 59.0 °F - 45.0 °F 60% 30.18 in 10.0 mi Calm Calm - N/A   Overcast
6:53 PM 57.0 °F - 45.0 °F 64% 30.19 in 10.0 mi ENE 4.6 mph - N/A   Mostly Cloudy
7:53 PM 55.9 °F - 44.1 °F 64% 30.19 in 10.0 mi ENE 4.6 mph - N/A   Overcast
8:53 PM 55.0 °F - 44.1 °F 67% 30.18 in 10.0 mi ENE 5.8 mph - N/A   Mostly Cloudy
9:53 PM 54.0 °F - 43.0 °F 66% 30.16 in 10.0 mi ENE 3.5 mph - N/A   Mostly Cloudy
10:53 PM 53.1 °F - 43.0 °F 69% 30.14 in 10.0 mi ENE 4.6 mph - N/A   Mostly Cloudy
11:53 PM 53.1 °F - 44.1 °F 71% 30.13 in 10.0 mi East 4.6 mph - N/A   Overcast